TimeCDT,TemperatureF,Dew PointF,Humidity,Sea Level PressureIn,VisibilityMPH,Wind Direction,Wind SpeedMPH,Gust SpeedMPH,PrecipitationIn,Events,Conditions,WindDirDegrees,DateUTC
12:10 AM,57.2,55.4,94,30.03,0.8,South,3.5,-,N/A,,Clear,170,2013-03-17 05:10:00
12:56 AM,57.9,55.9,93,29.98,0.8,Calm,Calm,-,N/A,,Clear,0,2013-03-17 05:56:00
1:49 AM,57.2,55.4,94,30.01,2.0,Calm,Calm,-,N/A,,Clear,0,2013-03-17 06:49:00
1:53 AM,57.2,55.4,94,30.01,1.0,Calm,Calm,-,N/A,,Mist,0,2013-03-17 06:53:00
1:56 AM,55.9,55.0,97,29.97,0.8,Calm,Calm,-,N/A,,Mist,0,2013-03-17 06:56:00
2:38 AM,55.4,53.6,94,30.00,1.2,Calm,Calm,-,N/A,,Scattered Clouds,0,2013-03-17 07:38:00
2:44 AM,55.4,53.6,94,30.00,3.0,Calm,Calm,-,N/A,,Scattered Clouds,0,2013-03-17 07:44:00
2:51 AM,53.6,51.8,94,30.00,2.5,Calm,Calm,-,N/A,,Mostly Cloudy,0,2013-03-17 07:51:00
2:56 AM,54.0,52.0,93,29.96,2.0,Calm,Calm,-,N/A,,Mostly Cloudy,0,2013-03-17 07:56:00
3:06 AM,53.6,51.8,94,29.99,7.0,Calm,Calm,-,N/A,,Mostly Cloudy,0,2013-03-17 08:06:00
3:17 AM,53.6,51.8,94,29.99,7.0,Calm,Calm,-,N/A,,Scattered Clouds,0,2013-03-17 08:17:00
3:36 AM,51.8,51.8,100,29.99,1.8,Calm,Calm,-,N/A,,Scattered Clouds,0,2013-03-17 08:36:00
3:51 AM,51.8,51.8,100,29.99,10.0,Calm,Calm,-,N/A,,Scattered Clouds,0,2013-03-17 08:51:00
3:56 AM,52.0,50.0,93,29.95,10.0,Calm,Calm,-,N/A,,Partly Cloudy,0,2013-03-17 08:56:00
4:22 AM,51.8,46.4,82,29.99,1.8,Calm,Calm,-,N/A,,Mostly Cloudy,0,2013-03-17 09:22:00
4:31 AM,53.6,50.0,88,29.99,3.0,Calm,Calm,-,N/A,,Partly Cloudy,0,2013-03-17 09:31:00
4:56 AM,54.0,52.0,93,29.95,10.0,Calm,Calm,-,N/A,,Partly Cloudy,0,2013-03-17 09:56:00
5:10 AM,53.6,51.8,94,29.99,10.0,Calm,Calm,-,N/A,,Scattered Clouds,0,2013-03-17 10:10:00
5:56 AM,53.1,51.1,93,29.97,10.0,Calm,Calm,-,N/A,,Scattered Clouds,0,2013-03-17 10:56:00
6:53 AM,55.4,53.6,94,30.01,10.0,Calm,Calm,-,N/A,,Overcast,0,2013-03-17 11:53:00
6:56 AM,55.0,53.1,93,29.98,10.0,Calm,Calm,-,N/A,,Mostly Cloudy,0,2013-03-17 11:56:00
7:04 AM,55.4,53.6,94,30.01,10.0,Calm,Calm,-,N/A,,Mostly Cloudy,0,2013-03-17 12:04:00
7:13 AM,55.4,53.6,94,30.01,9.0,ENE,4.6,-,N/A,,Mostly Cloudy,60,2013-03-17 12:13:00
7:21 AM,55.4,53.6,94,30.01,4.0,NE,3.5,-,N/A,,Scattered Clouds,40,2013-03-17 12:21:00
7:56 AM,57.0,55.0,93,29.98,10.0,Calm,Calm,-,N/A,,Clear,0,2013-03-17 12:56:00
8:56 AM,60.1,57.0,90,29.99,10.0,SSE,4.6,-,N/A,,Clear,150,2013-03-17 13:56:00
9:56 AM,63.0,59.0,87,30.01,10.0,SE,5.8,-,N/A,,Clear,140,2013-03-17 14:56:00
10:56 AM,66.9,57.9,73,29.99,10.0,ESE,6.9,-,N/A,,Clear,120,2013-03-17 15:56:00
11:56 AM,66.9,57.9,73,29.99,10.0,SE,8.1,-,N/A,,Clear,130,2013-03-17 16:56:00
12:56 PM,68.0,60.1,76,29.97,10.0,SSE,5.8,-,N/A,,Partly Cloudy,150,2013-03-17 17:56:00
1:56 PM,72.0,59.0,64,29.94,10.0,SSE,10.4,-,N/A,,Clear,150,2013-03-17 18:56:00
2:56 PM,72.0,57.9,61,29.92,10.0,South,8.1,-,N/A,,Partly Cloudy,190,2013-03-17 19:56:00
3:56 PM,71.1,57.9,63,29.91,10.0,South,8.1,-,N/A,,Overcast,190,2013-03-17 20:56:00
4:56 PM,71.1,57.9,63,29.91,10.0,South,9.2,-,N/A,,Overcast,180,2013-03-17 21:56:00
5:56 PM,69.1,60.1,73,29.91,10.0,South,8.1,-,N/A,,Mostly Cloudy,180,2013-03-17 22:56:00
6:56 PM,66.9,61.0,81,29.91,10.0,SSE,10.4,-,N/A,,Scattered Clouds,160,2013-03-17 23:56:00
7:13 PM,66.2,62.6,88,29.95,10.0,SSE,9.2,-,N/A,,Mostly Cloudy,160,2013-03-18 00:13:00
7:36 PM,64.4,60.8,88,29.95,10.0,SSE,8.1,-,N/A,,Scattered Clouds,150,2013-03-18 00:36:00
7:56 PM,64.0,60.1,87,29.91,10.0,SSE,6.9,-,N/A,,Clear,150,2013-03-18 00:56:00
8:09 PM,64.4,60.8,88,29.95,10.0,SE,6.9,-,N/A,,Scattered Clouds,140,2013-03-18 01:09:00
8:19 PM,64.4,60.8,88,29.95,10.0,SE,8.1,-,N/A,,Mostly Cloudy,140,2013-03-18 01:19:00
8:56 PM,64.0,61.0,90,29.92,10.0,SSE,6.9,-,N/A,,Overcast,150,2013-03-18 01:56:00
9:56 PM,64.9,61.0,87,29.92,10.0,SSE,10.4,-,N/A,,Overcast,150,2013-03-18 02:56:00
10:56 PM,64.0,61.0,90,29.92,10.0,SSE,9.2,-,N/A,,Overcast,160,2013-03-18 03:56:00
11:56 PM,64.0,61.0,90,29.90,10.0,SSE,6.9,-,N/A,,Mostly Cloudy,160,2013-03-18 04:56:00